This demonstration page uses our WeatherBlox Daily Observations layout. Learn more.

Left ArrowRight Arrow

Hourly Observations for August 3, 2021

Temp ( °F °C ) Dew Point ( °F °C ) Humidity (%) Winds ( mph kmh ) Pressure ( in mb ) Visibility ( mi km ) Precip ( " mm )
12:54 am 00:54 Clear 65 18.3 57 13.9 76 76 WSW 5 7 30.13 1020 8 13 0.00 0.00
1:54 am 01:54 Clear 61 16.1 56 13.3 84 84 Calm 30.12 1020 8 13 0.00 0.00
2:54 am 02:54 Clear 57 13.9 54 12.2 90 90 N 3 6 30.12 1020 8 13 0.00 0.00
3:54 am 03:54 Clear 57 13.9 54 12.2 90 90 N 3 6 30.12 1020 8 13 0.00 0.00
4:54 am 04:54 Clear 58 14.4 54 12.2 87 87 N 3 6 30.13 1020 8 13 0.00 0.00
5:54 am 05:54 Clear 55 12.8 52 11.1 90 90 Calm 30.13 1020 8 13 0.00 0.00
6:54 am 06:54 Sunny 55 12.8 52 11.1 90 90 Calm 30.14 1021 7 11 0.00 0.00
7:54 am 07:54 Hazy 61 16.1 56 13.3 84 84 Calm 30.14 1021 6 10 0.00 0.00
8:54 am 08:54 Hazy 65 18.3 58 14.4 78 78 Calm 30.14 1021 6 10 0.00 0.00
9:54 am 09:54 Sunny 71 21.7 59 15 66 66 VRB 3 6 30.13 1020 9 14 0.00 0.00
10:54 am 10:54 Sunny 77 25 57 13.9 50 50 SSE 13 20 30.12 1020 10 16 0.00 0.00
11:54 am 11:54 Sunny 79 26.1 56 13.3 45 45 SSE 13 20 30.11 1020 10 16 0.00 0.00
12:54 pm 12:54 Sunny 80 26.7 55 12.8 42 42 SSE 14 22 30.10 1019 10 16 0.00 0.00
1:54 pm 13:54 Sunny 80 26.7 56 13.3 44 44 SSE 7 11 30.09 1019 10 16 0.00 0.00
2:54 pm 14:54 Mostly Sunny 81 27.2 56 13.3 42 42 VRB 6 9 30.08 1019 10 16 0.00 0.00
3:54 pm 15:54 Sunny 82 27.8 57 13.9 42 42 SSE 10 17 30.07 1018 10 16 0.00 0.00
4:54 pm 16:54 Sunny 82 27.8 56 13.3 41 41 SE 10 17 30.06 1018 10 16 0.00 0.00
5:54 pm 17:54 Sunny 81 27.2 57 13.9 44 44 SE 10 17 30.06 1018 10 16 0.00 0.00
6:54 pm 18:54 Sunny 79 26.1 58 14.4 49 49 ESE 10 17 30.05 1018 10 16 0.00 0.00
7:54 pm 19:54 Mostly Cloudy 76 24.4 58 14.4 54 54 ESE 10 17 30.06 1018 10 16 0.00 0.00
8:54 pm 20:54 Clear 73 22.8 57 13.9 57 57 SE 9 15 30.06 1018 10 16 0.00 0.00
9:54 pm 21:54 Clear 72 22.2 57 13.9 59 59 SE 9 15 30.07 1018 10 16 0.00 0.00
10:54 pm 22:54 Mostly Cloudy 71 21.7 58 14.4 63 63 ESE 9 15 30.07 1018 10 16 0.00 0.00
11:54 pm 23:54 Cloudy 72 22.2 57 13.9 59 59 SE 8 13 30.06 1018 10 16 0.00 0.00

Powered by AerisWeather